• In Belgien
  • Länderverzeichnis
  • Für 7 Tage
  • Wassertemperatur
  • Satellitenkarten
  • Wetterkarte
  • Widgets
  • user-avatar
    Anmelden

    Stündliche Wetter Elbasan

    Heute, 15 November, Donnerstag

    Zeit Temperatur Niederschläge Wind Luftdruck Luftfeuchtigkeit
    00:00 +10°C° 0 mm 2 m/S 740 mmHg 76%
    01:00 +10°C° 0 mm 2 m/S 740 mmHg 78%
    02:00 +9°C° 0 mm 2 m/S 739 mmHg 79%
    03:00 +9°C° 0 mm 2 m/S 739 mmHg 80%
    04:00 +9°C° 0 mm 3 m/S 739 mmHg 80%
    05:00 +9°C° 0 mm 3 m/S 739 mmHg 80%
    06:00 +8°C° 0 mm 3 m/S 739 mmHg 79%
    07:00 +8°C° 0 mm 3 m/S 739 mmHg 79%
    08:00 +10°C° 0 mm 3 m/S 739 mmHg 69%
    09:00 +12°C° 0 mm 3 m/S 739 mmHg 59%
    10:00 +14°C° 0 mm 3 m/S 739 mmHg 48%
    11:00 +16°C° 0 mm 3 m/S 739 mmHg 44%
    12:00 +17°C° 0 mm 3 m/S 739 mmHg 39%
    13:00 +17°C° 0 mm 3 m/S 739 mmHg 35%
    14:00 +16°C° 0 mm 3 m/S 738 mmHg 37%
    15:00 +15°C° 0 mm 2 m/S 738 mmHg 40%
    16:00 +14°C° 0 mm 2 m/S 738 mmHg 43%
    17:00 +12°C° 0 mm 3 m/S 738 mmHg 45%
    18:00 +11°C° 0 mm 3 m/S 738 mmHg 48%
    19:00 +10°C° 0 mm 3 m/S 739 mmHg 51%
    20:00 +9°C° 0 mm 3 m/S 739 mmHg 53%
    21:00 +9°C° 0 mm 3 m/S 739 mmHg 56%
    22:00 +8°C° 0 mm 3 m/S 739 mmHg 59%
    23:00 +8°C° 0 mm 3 m/S 739 mmHg 61%

    Morgen, 16 November, Freitag

    Zeit Temperatur Niederschläge Wind Luftdruck Luftfeuchtigkeit
    00:00 +7°C° 0 mm 3 m/S 739 mmHg 63%
    01:00 +7°C° 0 mm 3 m/S 739 mmHg 65%
    02:00 +7°C° 0 mm 3 m/S 739 mmHg 67%
    03:00 +5°C° 0 mm 3 m/S 739 mmHg 68%
    04:00 +5°C° 0 mm 3 m/S 739 mmHg 69%
    05:00 +5°C° 0 mm 3 m/S 739 mmHg 69%
    06:00 +5°C° 0 mm 3 m/S 739 mmHg 70%
    07:00 +5°C° 0 mm 3 m/S 739 mmHg 70%
    08:00 +8°C° 0 mm 3 m/S 739 mmHg 63%
    09:00 +10°C° 0 mm 3 m/S 739 mmHg 56%
    10:00 +11°C° 0 mm 4 m/S 739 mmHg 49%
    11:00 +12°C° 0.1 mm 3 m/S 739 mmHg 48%
    12:00 +12°C° 0.1 mm 3 m/S 739 mmHg 48%
    13:00 +12°C° 0.1 mm 3 m/S 738 mmHg 48%
    14:00 +11°C° 0.1 mm 3 m/S 738 mmHg 51%
    15:00 +11°C° 0.1 mm 3 m/S 738 mmHg 54%
    16:00 +10°C° 0.1 mm 3 m/S 738 mmHg 58%
    17:00 +9°C° 0.2 mm 3 m/S 739 mmHg 60%
    18:00 +9°C° 0.2 mm 3 m/S 739 mmHg 62%
    19:00 +8°C° 0.2 mm 3 m/S 739 mmHg 65%
    20:00 +8°C° 0.2 mm 3 m/S 739 mmHg 66%
    21:00 +8°C° 0.2 mm 3 m/S 739 mmHg 68%
    22:00 +7°C° 0.2 mm 3 m/S 740 mmHg 70%
    23:00 +7°C° 0.1 mm 3 m/S 739 mmHg 72%

    übermorgen, 17 November, Samstag

    Zeit Temperatur Niederschläge Wind Luftdruck Luftfeuchtigkeit
    00:00 +7°C° 0.1 mm 3 m/S 739 mmHg 73%
    01:00 +5°C° 0.1 mm 3 m/S 739 mmHg 75%
    02:00 +5°C° 0 mm 3 m/S 739 mmHg 75%
    03:00 +5°C° 0 mm 4 m/S 739 mmHg 76%
    04:00 +5°C° 0 mm 4 m/S 739 mmHg 76%
    05:00 +5°C° 0 mm 4 m/S 739 mmHg 76%
    06:00 +5°C° 0 mm 3 m/S 739 mmHg 76%
    07:00 +5°C° 0 mm 3 m/S 739 mmHg 76%
    08:00 +6°C° 0 mm 4 m/S 739 mmHg 71%
    09:00 +8°C° 0 mm 4 m/S 739 mmHg 66%
    10:00 +10°C° 0 mm 4 m/S 739 mmHg 62%
    11:00 +10°C° 0 mm 4 m/S 739 mmHg 60%
    12:00 +11°C° 0 mm 4 m/S 739 mmHg 58%
    13:00 +11°C° 0 mm 4 m/S 738 mmHg 56%
    14:00 +10°C° 0 mm 4 m/S 738 mmHg 59%
    15:00 +8°C° 0 mm 4 m/S 738 mmHg 62%
    16:00 +9°C° 0 mm 3 m/S 738 mmHg 64%
    17:00 +8°C° 0 mm 3 m/S 738 mmHg 67%
    18:00 +7°C° 0 mm 3 m/S 738 mmHg 70%
    19:00 +7°C° 0 mm 3 m/S 738 mmHg 73%
    20:00 +5°C° 0 mm 3 m/S 738 mmHg 74%
    21:00 +5°C° 0 mm 3 m/S 738 mmHg 75%
    22:00 +5°C° 0 mm 3 m/S 738 mmHg 76%
    23:00 +4°C° 0 mm 3 m/S 738 mmHg 76%

    18 November, Sonntag

    Zeit Temperatur Niederschläge Wind Luftdruck Luftfeuchtigkeit
    00:00 +4°C° 0 mm 4 m/S 738 mmHg 76%
    01:00 +4°C° 0 mm 4 m/S 738 mmHg 76%
    02:00 +4°C° 0 mm 4 m/S 738 mmHg 76%
    03:00 +4°C° 0 mm 4 m/S 737 mmHg 76%
    04:00 +4°C° 0 mm 4 m/S 737 mmHg 75%
    05:00 +4°C° 0 mm 4 m/S 737 mmHg 74%
    06:00 +4°C° 0 mm 4 m/S 737 mmHg 73%
    07:00 +5°C° 0 mm 4 m/S 737 mmHg 72%
    08:00 +6°C° 0 mm 4 m/S 737 mmHg 69%
    09:00 +7°C° 0 mm 4 m/S 737 mmHg 66%
    10:00 +8°C° 0 mm 4 m/S 737 mmHg 63%
    11:00 +8°C° 0 mm 4 m/S 736 mmHg 62%
    12:00 +10°C° 0 mm 4 m/S 736 mmHg 61%
    13:00 +10°C° 0 mm 3 m/S 735 mmHg 61%
    14:00 +10°C° 0.1 mm 3 m/S 735 mmHg 63%
    15:00 +9°C° 0.1 mm 3 m/S 734 mmHg 66%
    16:00 +9°C° 0.1 mm 3 m/S 734 mmHg 68%
    17:00 +8°C° 0.1 mm 3 m/S 734 mmHg 70%
    18:00 +8°C° 0.1 mm 3 m/S 734 mmHg 71%
    19:00 +8°C° 0.1 mm 2 m/S 733 mmHg 72%
    20:00 +8°C° 0.1 mm 2 m/S 733 mmHg 73%
    21:00 +7°C° 0.1 mm 2 m/S 733 mmHg 73%
    22:00 +7°C° 0.1 mm 2 m/S 733 mmHg 74%
    23:00 +7°C° 0 mm 2 m/S 733 mmHg 75%

    19 November, Montag

    Zeit Temperatur Niederschläge Wind Luftdruck Luftfeuchtigkeit
    00:00 +7°C° 0 mm 2 m/S 732 mmHg 77%
    01:00 +6°C° 0 mm 2 m/S 732 mmHg 78%
    02:00 +6°C° 0 mm 2 m/S 732 mmHg 79%
    03:00 +6°C° 0 mm 2 m/S 731 mmHg 80%
    04:00 +6°C° 0 mm 2 m/S 731 mmHg 81%
    05:00 +6°C° 0 mm 2 m/S 731 mmHg 81%
    06:00 +6°C° 0 mm 2 m/S 731 mmHg 81%
    07:00 +6°C° 0 mm 2 m/S 731 mmHg 80%
    08:00 +8°C° 0 mm 2 m/S 731 mmHg 74%
    09:00 +10°C° 0 mm 2 m/S 731 mmHg 68%
    10:00 +13°C° 0 mm 1 m/S 732 mmHg 62%
    11:00 +13°C° 0 mm 2 m/S 731 mmHg 60%
    12:00 +14°C° 0 mm 2 m/S 731 mmHg 58%
    13:00 +15°C° 0 mm 2 m/S 731 mmHg 56%
    14:00 +14°C° 0 mm 1 m/S 731 mmHg 60%
    15:00 +13°C° 0 mm 1 m/S 731 mmHg 63%
    16:00 +13°C° 0 mm 1 m/S 731 mmHg 67%
    17:00 +12°C° 0 mm 1 m/S 731 mmHg 70%
    18:00 +11°C° 0 mm 1 m/S 732 mmHg 73%
    19:00 +10°C° 0 mm 1 m/S 732 mmHg 76%
    20:00 +9°C° 0.1 mm 2 m/S 732 mmHg 78%
    21:00 +9°C° 0.1 mm 2 m/S 732 mmHg 79%
    22:00 +10°C° 0.1 mm 2 m/S 732 mmHg 81%
    23:00 +10°C° 0.1 mm 3 m/S 732 mmHg 82%

    20 November, Dienstag

    Zeit Temperatur Niederschläge Wind Luftdruck Luftfeuchtigkeit
    00:00 +9°C° 0.1 mm 3 m/S 732 mmHg 83%
    01:00 +9°C° 0.1 mm 3 m/S 732 mmHg 84%
    02:00 +10°C° 0.2 mm 4 m/S 731 mmHg 83%
    03:00 +10°C° 0.2 mm 4 m/S 731 mmHg 82%
    04:00 +10°C° 0.2 mm 4 m/S 731 mmHg 80%
    05:00 +10°C° 1.3 mm 4 m/S 731 mmHg 81%
    06:00 +9°C° 1.3 mm 5 m/S 731 mmHg 82%
    07:00 +9°C° 1.3 mm 5 m/S 731 mmHg 83%
    08:00 +10°C° 0.9 mm 5 m/S 731 mmHg 80%
    09:00 +12°C° 0.9 mm 5 m/S 731 mmHg 78%
    10:00 +12°C° 0.9 mm 5 m/S 731 mmHg 76%
    11:00 +13°C° 0.8 mm 5 m/S 730 mmHg 75%
    12:00 +13°C° 0.8 mm 5 m/S 730 mmHg 75%
    13:00 +13°C° 0.8 mm 5 m/S 729 mmHg 75%
    14:00 +13°C° 1.8 mm 5 m/S 729 mmHg 78%
    15:00 +12°C° 1.8 mm 5 m/S 729 mmHg 81%
    16:00 +12°C° 1.8 mm 4 m/S 729 mmHg 84%
    17:00 +12°C° 0.8 mm 4 m/S 728 mmHg 85%
    18:00 +12°C° 0.8 mm 4 m/S 728 mmHg 85%
    19:00 +12°C° 0.8 mm 4 m/S 728 mmHg 86%
    20:00 +12°C° 1.4 mm 5 m/S 728 mmHg 86%
    21:00 +12°C° 1.4 mm 5 m/S 727 mmHg 86%
    22:00 +12°C° 1.4 mm 5 m/S 727 mmHg 87%
    23:00 +12°C° 1.5 mm 5 m/S 727 mmHg 87%
    Mehr zeigen